Погода в Панчкуле

Индия     30°42′16″N   76°51′50″E
темп.,
°C
ветер,
м/с
пор.,
м/с
влажн.,
%
обл.,
%
осадки,
мм/ч
давл.,
гПа
погр.,
м
14 августа, вс
вс1423:30+29всв22713 0.0 100022
02:30+27вюв23756 0.0 100173
05:30+27вюв22750 0.0 100132
08:30+30ююв23698 0.1 1003374
11:30+34ююв33550 0.9 10021340
14:30+36ююв234858 0.4 10002120
17:30+31в3367100 1.3 99953
20:30+27в3281100 3.9 100245
15 августа, пн
пн1523:30+25юв3792100 9.8 1002183
02:30+25всв3592100 6.4 1002159
05:30+24юв61295100 16.2 1003591
08:30+24юв81593100 4.7 1006675
11:30+24вюв61390100 6.0 1007592
14:30+25юв2486100 0.9 1006137
17:30+25с3483100 0.9 100479
20:30+25ссз4783100 0.0 1004137
16 августа, вт
вт1623:30+25ссз4675100 0.0 1003112
02:30+25вюв0174100 0.0 100319
05:30+25вюв2378100 0.0 100352
08:30+27ююв3574100 0.0 1005265
11:30+30юв6662100 0.0 10041138
14:30+33юв225598 0.0 10021661
17:30+32всв116134 0.1 1001844
20:30+28ссв34715 0.0 100249
17 августа, ср
ср1723:30+27вюв227614 0.0 100335
02:30+27вюв4107636 0.1 1003298
05:30+27вюв497641 0.1 1003383
08:30+28юв712767 0.0 1004882
11:30+31юв896711 0.1 10041036
14:30+33юв795914 0.4 10011602
17:30+31ююв47670 0.7 1000485
20:30+27вюв33810 1.8 100245
18 августа, чт
чт1823:30+26в22830 2.2 100330
02:30+26в228221 0.1 100220
05:30+25в11822 0.2 100212
08:30+29ююв12720 0.0 1003315
11:30+32ююз22623 0.9 1002984
14:30+33зсз225583 1.4 10001700
17:30+30сз247639 4.8 999105
20:30+27сз118253 1.3 100115